Flag for France Weather past 2 weeks in Reims, France

Now
52 °F

Passing clouds.


Feels Like: 49 °F
Forecast: 44 / 57 °F
Wind: 8 mph from West

Location: Chalons-Vatry

Current Time: Oct 21, 2014 at 1:11:24 AM

Latest Report: Oct 21, 2014 at 12:30 AM


Visibility: 4 mi

Pressure: 30.04 "Hg

Humidity: 100%

Dew point: 52 °F

Location of ReimsLocation

Historic Weather in Reims — Graph

°F

Reims temperature yesterday

Maximum temperature yesterday: 63 °F (at 12:30 AM)
Minimum temperature yesterday: 54 °F (at 9:30 PM)
Average temperature yesterday: 59 °F

Past Weeks' High & Low Weather Summary

 TemperatureHumidityPressure
High75 °F (Oct 18, 2:30 PM)100% (Oct 6, 12:00 AM)30.15 "Hg (Oct 6, 12:00 AM)
Low45 °F (Oct 12, 5:00 AM)59% (Oct 14, 1:00 PM)29.59 "Hg (Oct 7, 5:00 AM)
Average58 °F89%29.86 "Hg
* Reported Midnight between Oct 5 and Oct 6 — Midnight between Oct 20 and Oct 21, Reims, Weather by CustomWeather, © 2014

Note: Actual official high and low records may vary slightly from our data, if they occured in-between our weather recording intervals... More about our weather records

Advertising

Reims weather history for previous 24 hours

 ConditionsComfort  
Time TempWeatherWind HumidityBarometerVisibility
12:00 AM
Oct 21
54 °FPassing clouds.7 mph94%30.07 "Hg4 mi
11:30 PM
Oct 20
55 °FFog.8 mph94%30.07 "Hg3 mi
11:00 PM55 °FFog.8 mph100%30.07 "Hg2 mi
10:30 PM55 °FFog.6 mph94%30.07 "Hg0 mi
10:00 PM54 °FFog.6 mph100%30.07 "Hg1 mi
9:30 PM54 °FFog.6 mph100%30.07 "Hg1 mi
9:00 PM55 °FPassing clouds.7 mph94%30.07 "Hg4 mi
8:30 PM55 °FClear.7 mph100%30.07 "HgN/A
8:00 PM57 °FMostly cloudy.8 mph94%30.07 "HgN/A
7:30 PM57 °FLight rain. Overcast.6 mph100%30.07 "Hg5 mi
7:00 PM59 °FRain. Cloudy.8 mph94%30.07 "Hg5 mi
6:30 PM59 °FClear.7 mph94%30.07 "HgN/A
6:00 PM59 °FClear.6 mph94%30.07 "HgN/A
5:30 PM59 °FLight rain. Overcast.5 mph94%30.07 "HgN/A
5:00 PM59 °FPartly sunny.6 mph94%30.09 "HgN/A
4:30 PM59 °FBroken clouds.6 mph94%30.09 "HgN/A
4:00 PM59 °FBroken clouds.6 mph88%30.09 "HgN/A
3:30 PM59 °FMostly cloudy.6 mph88%30.12 "HgN/A
3:00 PM59 °FBroken clouds.5 mph88%30.12 "HgN/A
2:30 PM59 °FLight rain. Broken clouds.8 mph94%30.12 "HgN/A
2:00 PM59 °FLight rain. Mostly cloudy.6 mph94%30.12 "HgN/A
1:30 PM61 °FLight rain. Partly sunny.8 mph83%30.15 "HgN/A
1:00 PM61 °FBroken clouds.6 mph83%30.15 "HgN/A
12:30 PM63 °FScattered clouds.7 mph77%30.15 "HgN/A
12:00 PM61 °FPartly sunny.8 mph83%30.15 "HgN/A
11:30 AM61 °FClear.7 mph83%30.15 "HgN/A
11:00 AM59 °FBroken clouds.8 mph88%30.15 "HgN/A
10:30 AM59 °FPartly sunny.6 mph100%30.15 "HgN/A
10:00 AM59 °FPassing clouds.5 mph100%30.15 "Hg4 mi
9:30 AM59 °FFog.5 mph94%30.15 "Hg0 mi
9:00 AM57 °FFog.5 mph100%30.12 "Hg0 mi
8:30 AM57 °FFog.5 mph94%30.12 "Hg0 mi
8:00 AM57 °FFog.5 mph94%30.12 "Hg0 mi
7:30 AM57 °FFog.7 mph100%30.12 "Hg1 mi
7:00 AM57 °FDense fog.7 mph100%30.12 "Hg1 mi
5:00 AM57 °FClear.6 mph94%30.12 "Hg4 mi
4:30 AM57 °FPassing clouds.7 mph100%30.12 "Hg4 mi
4:00 AM59 °FPassing clouds.7 mph94%30.12 "HgN/A
3:30 AM59 °FPassing clouds.7 mph94%30.15 "HgN/A
3:00 AM59 °FClear.6 mph94%30.15 "HgN/A
2:30 AM61 °FPassing clouds.6 mph94%30.15 "HgN/A
2:00 AM63 °FMostly cloudy.7 mph88%30.15 "HgN/A
1:30 AM63 °FMostly cloudy.6 mph88%30.15 "HgN/A
1:00 AM63 °FOvercast.7 mph88%30.15 "HgN/A
Weather by CustomWeather, © 2014

See weather overviewHow to use our weather pages